Weather History for Farmington, NM

Change the Weather History Date:

Monday, November 19, 2012

  Actual Average Record
Temperature  
Mean Temperature 44 °F -  
Max Temperature 59 °F 49 °F 71 °F (2007)
Min Temperature 28 °F 25 °F 8 °F (1985)
Degree Days  
Heating Degree Days 22    
Moisture  
Dew Point 24 °F    
Average Humidity 52    
Maximum Humidity 82    
Minimum Humidity 16    
Precipitation  
Precipitation 0.00 in - - ()
Sea Level Pressure  
Sea Level Pressure 30.31 in    
Wind  
Wind Speed 6 mph (ENE)    
Max Wind Speed 10 mph    
Max Gust Speed -    
Visibility 10 miles    
Events      
Averages and records for this station are not official NWS values.
T = Trace of Precipitation, MM = Missing Value Source: NWS Daily Summary

Daily Weather History Graph

Daily Weather History Graph

Search for Another Location

Airport:

Trip Planner

Search our weather history database for the weather conditions in past years. The results will help you decide how hot, cold, wet, or windy it might be!

Date:

Astronomy

Nov. 19, 2012 Rise Set
Actual Time 6:55 AM MST 5:00 PM MST
Civil Twilight 6:27 AM MST 5:28 PM MST
Nautical Twilight 5:56 AM MST 6:00 PM MST
Astronomical Twilight 5:25 AM MST 6:31 PM MST
Moon 12:03 PM MST (11/19) 11:27 PM MST (11/19)
Length of Visible Light 11h 01m
Length of Day
10h 05m
Waxing Crescent, 41% of the Moon is Illuminated
Nov 19
Waxing Crescent
Nov 20
First Quarter
Nov 28
Full
Dec 6
Last Quarter
Dec 13
New

Hourly Weather History & Observations

Time (MST) Temp. Windchill Dew Point Humidity Pressure Visibility Wind Dir Wind Speed Gust Speed Precip Events Conditions
12:53 AM 35.1 °F 29.3 °F 27.0 °F 72% 30.22 in 10.0 mi ENE 6.9 mph - N/A   Clear
1:53 AM 34.0 °F 28.8 °F 26.1 °F 73% 30.24 in 10.0 mi East 5.8 mph - N/A   Clear
2:53 AM 33.1 °F 26.9 °F 26.1 °F 75% 30.25 in 10.0 mi ENE 6.9 mph - N/A   Partly Cloudy
3:53 AM 32.0 °F 25.6 °F 26.1 °F 79% 30.25 in 10.0 mi East 6.9 mph - N/A   Scattered Clouds
4:53 AM 32.0 °F 26.4 °F 26.1 °F 79% 30.28 in 10.0 mi East 5.8 mph - N/A   Clear
5:53 AM 30.9 °F 24.3 °F 25.0 °F 79% 30.31 in 10.0 mi East 6.9 mph - N/A   Clear
6:53 AM 28.9 °F 21.9 °F 24.1 °F 82% 30.35 in 10.0 mi East 6.9 mph - N/A   Clear
7:53 AM 33.1 °F 25.5 °F 26.1 °F 75% 30.36 in 10.0 mi East 9.2 mph - N/A   Clear
8:53 AM 37.0 °F 29.8 °F 27.0 °F 67% 30.36 in 10.0 mi ESE 10.4 mph - N/A   Clear
9:53 AM 43.0 °F 37.7 °F 28.0 °F 56% 30.37 in 10.0 mi ESE 9.2 mph - N/A   Clear
10:53 AM 48.9 °F - 28.0 °F 44% 30.35 in 10.0 mi ESE 4.6 mph - N/A   Clear
11:53 AM 53.1 °F - 28.0 °F 38% 30.32 in 10.0 mi Calm Calm - N/A   Clear
12:53 PM 55.9 °F - 28.0 °F 34% 30.28 in 10.0 mi Calm Calm - N/A   Clear
1:53 PM 57.0 °F - 24.1 °F 28% 30.27 in 10.0 mi Calm Calm - N/A   Clear
2:53 PM 57.9 °F - 19.0 °F 22% 30.26 in 10.0 mi West 3.5 mph - N/A   Clear
3:53 PM 57.0 °F - 19.0 °F 23% 30.27 in 10.0 mi Calm Calm - N/A   Clear
4:53 PM 54.0 °F - 21.0 °F 28% 30.29 in 10.0 mi West 3.5 mph - N/A   Clear
5:53 PM 50.0 °F - 21.0 °F 32% 30.31 in 10.0 mi Calm Calm - N/A   Clear
6:53 PM 42.1 °F 39.2 °F 21.0 °F 43% 30.36 in 10.0 mi North 4.6 mph - N/A   Clear
7:53 PM 39.0 °F 34.8 °F 21.0 °F 49% 30.37 in 10.0 mi NE 5.8 mph - N/A   Clear
8:53 PM 36.0 °F 31.1 °F 21.0 °F 55% 30.38 in 10.0 mi ENE 5.8 mph - N/A   Clear
9:53 PM 37.0 °F 33.3 °F 21.9 °F 54% 30.37 in 10.0 mi ENE 4.6 mph - N/A   Clear
10:53 PM 36.0 °F 31.1 °F 23.0 °F 59% 30.34 in 10.0 mi ENE 5.8 mph - N/A   Clear
11:53 PM 35.1 °F 29.3 °F 23.0 °F 61% 30.34 in 10.0 mi East 6.9 mph - N/A   Clear